EZY35GL EGKK-GCRR

Flight info

Callsign EZY35GL
Flight time N/A
Altitude 35000
Route IMVUR1Z IMVUR N63 SAM M195 LORKU DCT BALDA DCT ABUPI/N0442F370 DCT DIGAL DCT GAIOS DCT TAKAV DCT VEDOD UN857 TERTO TERTO1P
Aircraft A320/M-SDE3FGHIRWY/LB1

Departure

Time N/A
Airport London Gatwick Airport (EGKK)

Arrival

Time 2026-05-05 16:31
Airport César Manrique-Lanzarote Airport (GCRR)
Time Latitude Longitude Altitude Speed Heading
2026-05-05 13:21 47.38523 -3.98231 34953 ft 433 kts 200°
2026-05-05 13:21 47.35728 -3.99899 34952 ft 433 kts 200°
2026-05-05 13:22 47.30136 -4.03244 34955 ft 434 kts 200°
2026-05-05 13:22 47.24537 -4.06581 34951 ft 435 kts 200°
2026-05-05 13:23 47.18918 -4.09911 34954 ft 435 kts 200°
2026-05-05 13:23 47.13293 -4.13243 34954 ft 436 kts 200°
2026-05-05 13:24 47.07656 -4.16576 34955 ft 437 kts 200°
2026-05-05 13:24 47.02006 -4.19907 34954 ft 438 kts 200°
2026-05-05 13:25 46.96391 -4.23211 34957 ft 439 kts 200°
2026-05-05 13:25 46.90718 -4.26536 34961 ft 439 kts 200°
2026-05-05 13:26 46.85045 -4.29862 34963 ft 440 kts 200°
2026-05-05 13:26 46.79360 -4.33182 34962 ft 440 kts 200°
2026-05-05 13:27 46.73669 -4.36495 34957 ft 441 kts 200°
2026-05-05 13:27 46.67974 -4.39808 34958 ft 441 kts 200°
2026-05-05 13:28 46.62276 -4.43111 34959 ft 441 kts 200°
2026-05-05 13:28 46.56565 -4.46410 34961 ft 442 kts 200°
2026-05-05 13:29 46.50856 -4.49703 34961 ft 442 kts 200°
2026-05-05 13:29 46.45180 -4.52980 34970 ft 442 kts 201°
2026-05-05 13:30 46.39462 -4.56277 34970 ft 442 kts 201°
2026-05-05 13:30 46.33735 -4.59556 34972 ft 442 kts 201°
2026-05-05 13:31 46.28012 -4.62825 34975 ft 442 kts 201°
2026-05-05 13:31 46.22287 -4.66090 34976 ft 443 kts 201°
2026-05-05 13:32 46.16555 -4.69356 34974 ft 443 kts 201°
2026-05-05 13:32 46.10821 -4.72619 34976 ft 443 kts 201°
2026-05-05 13:33 46.05082 -4.75868 34974 ft 443 kts 201°
2026-05-05 13:33 45.99374 -4.79098 34974 ft 444 kts 201°
2026-05-05 13:34 45.93628 -4.82357 34976 ft 444 kts 201°
2026-05-05 13:34 45.87869 -4.85600 34976 ft 445 kts 201°
2026-05-05 13:35 45.82105 -4.88825 34974 ft 445 kts 201°
2026-05-05 13:35 45.76331 -4.92063 34980 ft 446 kts 201°
2026-05-05 13:36 45.70555 -4.95298 34978 ft 446 kts 202°
2026-05-05 13:36 45.64775 -4.98532 34980 ft 446 kts 202°
2026-05-05 13:37 45.58988 -5.01760 34982 ft 447 kts 202°
2026-05-05 13:37 45.53233 -5.04953 34982 ft 447 kts 202°
2026-05-05 13:38 45.47437 -5.08168 34984 ft 447 kts 202°
2026-05-05 13:38 45.41632 -5.11385 34987 ft 447 kts 202°
2026-05-05 13:39 45.35830 -5.14592 34988 ft 448 kts 202°
2026-05-05 13:39 45.30023 -5.17784 34990 ft 448 kts 202°
2026-05-05 13:40 45.24210 -5.20982 34989 ft 448 kts 202°
2026-05-05 13:40 45.18402 -5.24181 34988 ft 448 kts 202°
2026-05-05 13:41 45.12589 -5.27361 34989 ft 448 kts 202°
2026-05-05 13:41 45.06808 -5.30504 34990 ft 448 kts 202°
2026-05-05 13:42 45.00998 -5.33671 34997 ft 448 kts 202°
2026-05-05 13:42 44.95186 -5.36829 34995 ft 447 kts 202°
2026-05-05 13:43 44.89380 -5.39988 34997 ft 447 kts 202°
2026-05-05 13:43 44.83571 -5.43126 34992 ft 447 kts 202°
2026-05-05 13:44 44.78742 -5.45730 34998 ft 447 kts 202°
2026-05-05 13:44 44.71996 -5.49374 34997 ft 447 kts 202°
2026-05-05 13:45 44.67133 -5.51995 35002 ft 447 kts 202°
2026-05-05 13:45 44.61322 -5.55111 34998 ft 447 kts 202°
2026-05-05 13:46 44.55587 -5.58435 35006 ft 446 kts 205°
2026-05-05 13:46 44.49975 -5.62013 35007 ft 446 kts 206°
2026-05-05 13:47 44.44328 -5.65605 35008 ft 446 kts 205°
2026-05-05 13:47 44.38655 -5.69109 35009 ft 446 kts 205°
2026-05-05 13:48 44.32979 -5.72576 35013 ft 445 kts 205°
2026-05-05 13:48 44.27300 -5.76041 35014 ft 445 kts 205°
2026-05-05 13:49 44.21629 -5.79507 35020 ft 445 kts 205°
2026-05-05 13:49 44.15960 -5.82972 35022 ft 445 kts 205°
2026-05-05 13:50 44.10329 -5.86403 35019 ft 445 kts 205°
2026-05-05 13:50 44.04668 -5.89843 35020 ft 444 kts 206°
2026-05-05 13:51 43.98995 -5.93286 35023 ft 444 kts 206°
2026-05-05 13:51 43.93333 -5.96711 35025 ft 444 kts 206°
2026-05-05 13:52 43.87666 -6.00130 35025 ft 444 kts 206°
2026-05-05 13:52 43.82000 -6.03537 35028 ft 444 kts 206°
2026-05-05 13:53 43.76328 -6.06941 35040 ft 444 kts 206°
2026-05-05 13:53 43.70703 -6.10325 35038 ft 444 kts 206°
2026-05-05 13:54 43.65042 -6.13728 35039 ft 444 kts 206°
2026-05-05 13:54 43.59377 -6.17116 35045 ft 444 kts 206°
2026-05-05 13:55 43.53700 -6.20496 35041 ft 444 kts 206°
2026-05-05 13:55 43.48032 -6.23875 35037 ft 444 kts 207°
2026-05-05 13:56 43.42355 -6.27239 35031 ft 444 kts 207°
2026-05-05 13:56 43.36677 -6.30600 35031 ft 444 kts 207°
2026-05-05 13:57 43.31003 -6.33967 35027 ft 444 kts 207°
2026-05-05 13:57 43.25366 -6.37303 35023 ft 444 kts 207°
2026-05-05 13:58 43.19688 -6.40646 35025 ft 444 kts 207°
2026-05-05 13:58 43.14003 -6.43986 35023 ft 444 kts 207°
2026-05-05 13:59 43.05481 -6.48977 35018 ft 444 kts 207°
2026-05-05 14:00 42.96969 -6.53955 35016 ft 444 kts 207°
2026-05-05 14:00 42.91286 -6.57266 35015 ft 444 kts 207°
2026-05-05 14:01 42.85649 -6.60543 35014 ft 443 kts 207°
2026-05-05 14:01 42.79973 -6.63842 35005 ft 443 kts 207°
2026-05-05 14:02 42.74300 -6.67137 35008 ft 443 kts 207°
2026-05-05 14:02 42.68629 -6.70424 35009 ft 443 kts 207°
2026-05-05 14:03 42.62961 -6.73699 35006 ft 443 kts 207°
2026-05-05 14:03 42.57292 -6.76958 35008 ft 442 kts 207°
2026-05-05 14:04 42.51624 -6.80209 35004 ft 442 kts 208°
2026-05-05 14:04 42.45963 -6.83464 35008 ft 442 kts 208°
2026-05-05 14:05 42.40300 -6.86715 35011 ft 442 kts 208°
2026-05-05 14:05 42.34676 -6.89931 35007 ft 442 kts 208°
2026-05-05 14:06 42.29015 -6.93160 35006 ft 441 kts 208°
2026-05-05 14:06 42.23362 -6.96380 35001 ft 441 kts 208°
2026-05-05 14:07 42.17708 -6.99598 35002 ft 441 kts 208°
2026-05-05 14:07 42.12051 -7.02804 35000 ft 441 kts 208°
2026-05-05 14:08 42.06402 -7.06004 35000 ft 440 kts 208°
2026-05-05 14:08 42.00753 -7.09195 34994 ft 440 kts 208°
2026-05-05 14:09 41.95148 -7.12357 34995 ft 440 kts 208°
2026-05-05 14:09 41.89504 -7.15527 34998 ft 440 kts 208°
2026-05-05 14:10 41.83863 -7.18700 34991 ft 440 kts 208°
2026-05-05 14:10 41.78225 -7.21869 34993 ft 439 kts 209°
2026-05-05 14:11 41.72453 -7.24647 34991 ft 444 kts 202°
2026-05-05 14:11 41.66504 -7.26922 34987 ft 444 kts 202°
2026-05-05 14:12 41.60606 -7.29201 34981 ft 444 kts 202°
2026-05-05 14:12 41.54666 -7.31492 34982 ft 444 kts 202°
2026-05-05 14:13 41.48732 -7.33771 34985 ft 444 kts 203°
2026-05-05 14:13 41.42790 -7.36048 34984 ft 444 kts 203°
2026-05-05 14:14 41.36862 -7.38319 34985 ft 443 kts 203°
2026-05-05 14:14 41.30939 -7.40583 34991 ft 443 kts 203°
2026-05-05 14:15 41.25024 -7.42846 35000 ft 442 kts 203°
2026-05-05 14:15 41.19152 -7.45079 35000 ft 442 kts 203°
2026-05-05 14:16 41.13243 -7.47315 35001 ft 441 kts 203°
2026-05-05 14:16 41.07350 -7.49545 35005 ft 440 kts 204°
2026-05-05 14:17 41.01471 -7.51770 35004 ft 439 kts 203°
2026-05-05 14:17 40.95600 -7.53980 35009 ft 438 kts 203°
2026-05-05 14:18 40.89741 -7.56195 35008 ft 437 kts 203°
2026-05-05 14:18 40.83895 -7.58400 35013 ft 436 kts 203°
2026-05-05 14:19 40.78101 -7.60577 35015 ft 436 kts 203°
2026-05-05 14:19 40.72276 -7.62752 35024 ft 435 kts 203°
2026-05-05 14:20 40.66465 -7.64922 35023 ft 433 kts 203°
2026-05-05 14:20 40.60665 -7.67088 35028 ft 432 kts 203°
2026-05-05 14:21 40.54885 -7.69249 35027 ft 431 kts 203°
2026-05-05 14:21 40.49115 -7.71402 35033 ft 431 kts 202°
2026-05-05 14:22 40.43352 -7.73540 35031 ft 430 kts 202°
2026-05-05 14:22 40.37637 -7.75654 35028 ft 429 kts 202°
2026-05-05 14:23 40.31888 -7.77781 35036 ft 429 kts 202°
2026-05-05 14:23 40.26151 -7.79902 35040 ft 428 kts 202°
2026-05-05 14:24 40.20423 -7.82014 35038 ft 428 kts 202°
2026-05-05 14:24 40.14692 -7.84118 35035 ft 427 kts 202°
2026-05-05 14:25 40.08980 -7.86218 35033 ft 426 kts 202°
2026-05-05 14:25 40.03275 -7.88321 35037 ft 426 kts 202°
2026-05-05 14:26 39.97579 -7.90404 35039 ft 425 kts 202°
2026-05-05 14:26 39.91897 -7.92480 35045 ft 423 kts 202°
2026-05-05 14:27 39.86262 -7.94535 35051 ft 423 kts 202°
2026-05-05 14:27 39.80610 -7.96596 35048 ft 421 kts 202°
2026-05-05 14:28 39.74975 -7.98649 35056 ft 420 kts 202°
2026-05-05 14:28 39.69366 -8.00741 35058 ft 419 kts 203°
2026-05-05 14:29 39.63799 -8.02908 35057 ft 417 kts 203°
2026-05-05 14:29 39.58241 -8.05072 35051 ft 417 kts 203°
2026-05-05 14:30 39.52687 -8.07207 35048 ft 416 kts 203°
2026-05-05 14:30 39.47170 -8.09313 35047 ft 416 kts 203°
2026-05-05 14:31 39.41623 -8.11430 35040 ft 416 kts 203°
2026-05-05 14:31 39.36077 -8.13550 35040 ft 415 kts 203°
2026-05-05 14:32 39.30541 -8.15665 35051 ft 415 kts 203°
2026-05-05 14:32 39.25002 -8.17771 35051 ft 415 kts 203°
2026-05-05 14:33 39.19464 -8.19877 35046 ft 415 kts 203°
2026-05-05 14:33 39.13974 -8.21971 35052 ft 414 kts 203°
2026-05-05 14:34 39.08451 -8.24067 35049 ft 414 kts 203°
2026-05-05 14:34 39.02928 -8.26153 35053 ft 413 kts 204°
2026-05-05 14:35 38.97420 -8.28231 35053 ft 412 kts 204°
2026-05-05 14:35 38.91921 -8.30306 35062 ft 411 kts 204°
2026-05-05 14:36 38.86437 -8.32382 35068 ft 410 kts 204°
2026-05-05 14:36 38.80963 -8.34445 35068 ft 410 kts 204°
2026-05-05 14:37 38.75497 -8.36495 35065 ft 409 kts 204°
2026-05-05 14:37 38.70071 -8.38530 35066 ft 409 kts 204°
2026-05-05 14:38 38.64613 -8.40570 35067 ft 409 kts 204°
2026-05-05 14:38 38.59157 -8.42608 35065 ft 408 kts 204°
2026-05-05 14:39 38.53708 -8.44648 35057 ft 408 kts 204°
2026-05-05 14:39 38.48256 -8.46683 35060 ft 408 kts 203°
2026-05-05 14:40 38.42806 -8.48708 35053 ft 408 kts 203°
2026-05-05 14:40 38.37359 -8.50732 35054 ft 407 kts 203°
2026-05-05 14:41 38.31917 -8.52753 35052 ft 407 kts 203°
2026-05-05 14:41 38.26515 -8.54760 35060 ft 407 kts 203°
2026-05-05 14:42 38.21074 -8.56775 35061 ft 407 kts 203°
2026-05-05 14:42 38.15636 -8.58788 35065 ft 407 kts 203°
2026-05-05 14:43 38.10196 -8.60787 35075 ft 407 kts 202°
2026-05-05 14:43 38.04751 -8.62787 35078 ft 407 kts 202°
2026-05-05 14:44 37.99316 -8.64785 35077 ft 406 kts 202°
2026-05-05 14:44 37.93887 -8.66779 35078 ft 406 kts 202°
2026-05-05 14:45 37.88461 -8.68773 35079 ft 406 kts 202°
2026-05-05 14:45 37.83067 -8.70748 35086 ft 406 kts 202°
2026-05-05 14:46 37.77635 -8.72735 35088 ft 406 kts 202°
2026-05-05 14:46 37.72198 -8.74715 35085 ft 407 kts 202°
2026-05-05 14:47 37.66758 -8.76697 35082 ft 407 kts 202°
2026-05-05 14:47 37.61308 -8.78678 35081 ft 408 kts 202°
2026-05-05 14:48 37.55849 -8.80659 35085 ft 408 kts 202°
2026-05-05 14:48 37.50430 -8.82629 35083 ft 408 kts 202°
2026-05-05 14:49 37.44965 -8.84611 35082 ft 409 kts 202°
2026-05-05 14:49 37.40423 -8.86252 35086 ft 409 kts 201°
2026-05-05 14:50 37.34029 -8.88561 35083 ft 409 kts 201°
2026-05-05 14:50 37.28555 -8.90525 35082 ft 409 kts 201°
2026-05-05 14:51 37.23077 -8.92496 35083 ft 410 kts 201°
2026-05-05 14:51 37.17592 -8.94476 35083 ft 410 kts 201°
2026-05-05 14:52 37.12146 -8.96436 35082 ft 411 kts 201°
2026-05-05 14:52 37.06649 -8.98406 35081 ft 411 kts 201°
2026-05-05 14:53 37.01152 -9.00366 35084 ft 411 kts 201°
2026-05-05 14:53 36.95648 -9.02323 35089 ft 411 kts 201°
2026-05-05 14:54 36.91073 -9.03947 35089 ft 411 kts 201°
2026-05-05 14:54 36.85579 -9.05912 35088 ft 411 kts 201°
2026-05-05 14:55 36.79196 -9.08193 35094 ft 410 kts 201°
2026-05-05 14:55 36.73703 -9.10143 35094 ft 410 kts 201°
2026-05-05 14:56 36.69106 -9.11769 35093 ft 410 kts 201°
2026-05-05 14:56 36.63656 -9.13693 35094 ft 410 kts 201°
2026-05-05 14:57 36.58170 -9.15634 35091 ft 410 kts 201°
2026-05-05 14:57 36.52691 -9.17574 35109 ft 409 kts 201°
2026-05-05 14:58 36.47214 -9.19506 35108 ft 409 kts 201°
2026-05-05 14:58 36.41741 -9.21430 35106 ft 409 kts 201°
2026-05-05 14:59 36.36272 -9.23354 35110 ft 408 kts 200°
2026-05-05 14:59 36.30809 -9.25276 35106 ft 408 kts 200°
2026-05-05 15:00 36.26272 -9.26871 35101 ft 408 kts 200°
2026-05-05 15:00 36.19931 -9.29090 35100 ft 408 kts 200°
2026-05-05 15:01 36.14474 -9.30998 35096 ft 407 kts 200°
2026-05-05 15:01 36.09014 -9.32904 35096 ft 408 kts 200°
2026-05-05 15:02 36.03553 -9.34804 35101 ft 408 kts 200°
2026-05-05 15:02 35.98082 -9.36706 35095 ft 408 kts 201°
2026-05-05 15:03 35.92911 -9.39408 35098 ft 403 kts 209°
2026-05-05 15:03 35.87851 -9.42401 35100 ft 404 kts 209°
2026-05-05 15:04 35.82780 -9.45387 35099 ft 404 kts 209°
2026-05-05 15:04 35.77706 -9.48362 35112 ft 404 kts 209°
2026-05-05 15:05 35.70086 -9.52828 35115 ft 405 kts 209°
2026-05-05 15:06 35.65002 -9.55802 35117 ft 405 kts 209°
2026-05-05 15:06 35.59948 -9.58750 35116 ft 405 kts 208°
2026-05-05 15:07 35.54860 -9.61715 35112 ft 405 kts 208°
2026-05-05 15:07 35.49774 -9.64683 35113 ft 405 kts 208°
2026-05-05 15:08 35.44686 -9.67646 35114 ft 405 kts 208°
2026-05-05 15:08 35.39598 -9.70598 35117 ft 405 kts 208°
2026-05-05 15:09 35.34507 -9.73547 35110 ft 405 kts 208°
2026-05-05 15:09 35.29420 -9.76496 35110 ft 405 kts 208°
2026-05-05 15:10 35.24364 -9.79429 35107 ft 405 kts 208°
2026-05-05 15:10 35.19273 -9.82370 35104 ft 405 kts 208°
2026-05-05 15:11 35.14178 -9.85311 35101 ft 405 kts 208°
2026-05-05 15:11 35.09075 -9.88251 35096 ft 406 kts 208°
2026-05-05 15:12 35.03962 -9.91192 35098 ft 406 kts 208°
2026-05-05 15:12 34.98841 -9.94126 35098 ft 407 kts 208°
2026-05-05 15:13 34.93712 -9.97071 35095 ft 408 kts 208°
2026-05-05 15:13 34.88611 -9.99990 35099 ft 408 kts 208°
2026-05-05 15:14 34.83469 -10.02931 35103 ft 409 kts 208°
2026-05-05 15:14 34.78322 -10.05880 35101 ft 409 kts 208°
2026-05-05 15:15 34.73172 -10.08822 35099 ft 409 kts 208°
2026-05-05 15:15 34.68013 -10.11754 35101 ft 410 kts 207°
2026-05-05 15:16 34.62852 -10.14688 35101 ft 410 kts 208°
2026-05-05 15:16 34.57723 -10.17618 35104 ft 410 kts 208°
2026-05-05 15:17 34.52559 -10.20547 35102 ft 410 kts 207°
2026-05-05 15:17 34.47388 -10.23470 35102 ft 410 kts 207°
2026-05-05 15:18 34.42210 -10.26400 35105 ft 411 kts 207°
2026-05-05 15:18 34.37027 -10.29324 35104 ft 411 kts 207°
2026-05-05 15:19 34.31846 -10.32250 35104 ft 411 kts 207°
2026-05-05 15:19 34.26661 -10.35168 35101 ft 411 kts 207°
2026-05-05 15:20 34.21511 -10.38073 35099 ft 411 kts 207°
2026-05-05 15:20 34.16325 -10.40989 35098 ft 411 kts 207°
2026-05-05 15:21 34.11134 -10.43902 35099 ft 412 kts 207°
2026-05-05 15:21 34.05940 -10.46812 35096 ft 411 kts 207°
2026-05-05 15:22 34.00749 -10.49720 35096 ft 411 kts 207°
2026-05-05 15:22 33.95556 -10.52623 35095 ft 412 kts 207°
2026-05-05 15:23 33.90394 -10.55510 35090 ft 412 kts 207°
2026-05-05 15:23 33.85188 -10.58413 35096 ft 412 kts 207°
2026-05-05 15:24 33.79977 -10.61305 35099 ft 412 kts 207°
2026-05-05 15:24 33.74772 -10.64205 35098 ft 413 kts 207°
2026-05-05 15:25 33.69560 -10.67105 35096 ft 413 kts 207°
2026-05-05 15:25 33.64347 -10.69991 35100 ft 413 kts 207°
2026-05-05 15:26 33.59161 -10.72853 35099 ft 413 kts 207°
2026-05-05 15:26 33.53946 -10.75749 35097 ft 413 kts 207°
2026-05-05 15:27 33.48734 -10.78626 35097 ft 413 kts 207°
2026-05-05 15:27 33.43522 -10.81504 35100 ft 413 kts 207°
2026-05-05 15:28 33.38309 -10.84379 35108 ft 412 kts 207°
2026-05-05 15:28 33.33099 -10.87240 35105 ft 412 kts 207°
2026-05-05 15:29 33.27925 -10.90074 35113 ft 411 kts 207°
2026-05-05 15:29 33.22726 -10.92931 35109 ft 411 kts 207°
2026-05-05 15:30 33.17530 -10.95783 35111 ft 410 kts 208°
2026-05-05 15:30 33.12347 -10.98626 35114 ft 410 kts 208°
2026-05-05 15:31 33.07168 -11.01458 35106 ft 409 kts 208°
2026-05-05 15:31 33.01996 -11.04267 35112 ft 408 kts 208°
2026-05-05 15:32 32.96876 -11.07059 35112 ft 407 kts 208°
2026-05-05 15:32 32.91730 -11.09865 35111 ft 406 kts 208°
2026-05-05 15:33 32.86598 -11.12647 35110 ft 405 kts 209°
2026-05-05 15:33 32.81485 -11.15430 35109 ft 404 kts 209°
2026-05-05 15:34 32.76378 -11.18198 35111 ft 403 kts 209°
2026-05-05 15:34 32.71293 -11.20957 35110 ft 401 kts 209°
2026-05-05 15:35 32.66223 -11.23709 35113 ft 400 kts 210°
2026-05-05 15:35 32.61201 -11.26419 35116 ft 399 kts 210°
2026-05-05 15:36 32.56162 -11.29130 35112 ft 397 kts 210°
2026-05-05 15:36 32.51137 -11.31831 35112 ft 396 kts 210°
2026-05-05 15:37 32.46136 -11.34527 35112 ft 394 kts 210°
2026-05-05 15:37 32.41154 -11.37215 35109 ft 393 kts 210°
2026-05-05 15:38 32.36188 -11.39885 35110 ft 391 kts 210°
2026-05-05 15:38 32.31240 -11.42534 35112 ft 390 kts 210°
2026-05-05 15:39 32.26338 -11.45155 35108 ft 388 kts 210°
2026-05-05 15:39 32.21425 -11.47781 35107 ft 387 kts 211°
2026-05-05 15:40 32.16540 -11.50400 35102 ft 385 kts 211°
2026-05-05 15:40 32.11664 -11.52997 35106 ft 383 kts 211°
2026-05-05 15:41 32.06817 -11.55581 35104 ft 382 kts 211°
2026-05-05 15:41 32.01987 -11.58157 35096 ft 380 kts 211°
2026-05-05 15:42 31.97184 -11.60710 35095 ft 378 kts 211°
2026-05-05 15:42 31.92395 -11.63257 35094 ft 377 kts 212°
2026-05-05 15:43 31.87654 -11.65771 35090 ft 376 kts 212°
2026-05-05 15:43 31.82893 -11.68295 35090 ft 375 kts 212°
2026-05-05 15:44 31.78144 -11.70808 35089 ft 374 kts 212°
2026-05-05 15:44 31.73407 -11.73312 35088 ft 373 kts 212°
2026-05-05 15:45 31.68688 -11.75807 35083 ft 372 kts 212°
2026-05-05 15:45 31.63978 -11.78294 35080 ft 371 kts 212°
2026-05-05 15:46 31.59282 -11.80771 35085 ft 370 kts 212°
2026-05-05 15:46 31.54588 -11.83237 35090 ft 369 kts 213°
2026-05-05 15:47 31.49948 -11.85683 35083 ft 368 kts 213°
2026-05-05 15:47 31.45291 -11.88138 35081 ft 367 kts 213°
2026-05-05 15:48 31.40644 -11.90578 35079 ft 366 kts 213°
2026-05-05 15:48 31.36003 -11.93004 35076 ft 365 kts 213°
2026-05-05 15:49 31.31373 -11.95423 35076 ft 364 kts 213°
2026-05-05 15:49 31.26755 -11.97836 35074 ft 363 kts 213°
2026-05-05 15:50 31.22152 -12.00247 35072 ft 362 kts 213°
2026-05-05 15:50 31.17582 -12.02635 35072 ft 361 kts 213°
2026-05-05 15:51 31.12998 -12.05020 35071 ft 361 kts 213°
2026-05-05 15:51 31.08422 -12.07404 35071 ft 360 kts 213°
2026-05-05 15:52 31.03856 -12.09781 35066 ft 356 kts 213°
2026-05-05 15:52 30.99443 -12.12065 35066 ft 342 kts 214°
2026-05-05 15:53 30.95121 -12.14315 35064 ft 339 kts 214°
2026-05-05 15:53 30.90814 -12.16559 35062 ft 339 kts 214°
2026-05-05 15:54 30.86515 -12.18792 35062 ft 338 kts 214°
2026-05-05 15:54 30.82212 -12.21016 35060 ft 338 kts 214°
2026-05-05 15:55 30.77940 -12.23217 35061 ft 338 kts 214°
2026-05-05 15:55 30.73651 -12.25433 35059 ft 337 kts 214°
2026-05-05 15:56 30.69371 -12.27640 35056 ft 336 kts 214°
2026-05-05 15:56 30.65099 -12.29852 35055 ft 336 kts 214°
2026-05-05 15:57 30.60831 -12.32053 35055 ft 335 kts 214°
2026-05-05 15:57 30.56561 -12.34244 35048 ft 335 kts 214°
2026-05-05 15:58 30.52300 -12.36438 35049 ft 335 kts 214°
2026-05-05 15:58 30.48423 -12.39174 35046 ft 322 kts 225°
2026-05-05 15:59 30.44821 -12.42278 35045 ft 323 kts 225°
2026-05-05 15:59 30.41242 -12.45353 35044 ft 323 kts 225°
2026-05-05 16:00 30.37636 -12.48451 35043 ft 323 kts 225°
2026-05-05 16:00 30.34032 -12.51545 35042 ft 323 kts 225°
2026-05-05 16:01 30.30426 -12.54631 35043 ft 323 kts 224°
2026-05-05 16:01 30.26815 -12.57717 35052 ft 323 kts 224°
2026-05-05 16:02 30.23205 -12.60806 35049 ft 323 kts 224°
2026-05-05 16:02 30.19570 -12.63917 35052 ft 332 kts 224°
2026-05-05 16:03 30.15801 -12.67147 35062 ft 346 kts 224°
2026-05-05 16:03 30.13852 -12.68811 34831 ft 351 kts 224°
2026-05-05 16:03 30.11884 -12.70487 33797 ft 351 kts 223°
2026-05-05 16:03 30.10017 -12.72264 32658 ft 342 kts 231°
2026-05-05 16:04 30.08432 -12.74275 31683 ft 336 kts 232°
2026-05-05 16:04 30.06908 -12.76230 31224 ft 319 kts 232°
2026-05-05 16:04 30.05938 -12.77477 30921 ft 310 kts 232°
2026-05-05 16:04 30.04531 -12.79287 30489 ft 296 kts 232°
2026-05-05 16:05 30.03190 -12.81018 30066 ft 284 kts 232°
2026-05-05 16:05 30.01900 -12.82685 29561 ft 276 kts 233°
2026-05-05 16:05 30.00624 -12.84336 29101 ft 275 kts 233°
2026-05-05 16:05 29.99355 -12.85978 28691 ft 273 kts 233°
2026-05-05 16:06 29.98088 -12.87613 28412 ft 273 kts 233°
2026-05-05 16:06 29.96820 -12.89243 28107 ft 272 kts 233°
2026-05-05 16:06 29.95559 -12.90865 27740 ft 271 kts 233°
2026-05-05 16:06 29.94304 -12.92482 27364 ft 270 kts 233°
2026-05-05 16:07 29.93057 -12.94089 26986 ft 268 kts 233°
2026-05-05 16:07 29.91813 -12.95691 26600 ft 268 kts 233°
2026-05-05 16:07 29.90510 -12.97225 26215 ft 270 kts 226°
2026-05-05 16:07 29.88927 -12.98434 25812 ft 278 kts 215°
2026-05-05 16:08 29.87097 -12.99246 25373 ft 284 kts 209°
2026-05-05 16:08 29.85220 -12.99966 24938 ft 284 kts 209°
2026-05-05 16:08 29.83369 -13.00679 24486 ft 284 kts 209°
2026-05-05 16:08 29.81492 -13.01405 24028 ft 285 kts 209°
2026-05-05 16:09 29.79611 -13.02135 23572 ft 286 kts 209°
2026-05-05 16:09 29.77723 -13.02869 23057 ft 286 kts 208°
2026-05-05 16:09 29.75837 -13.03600 22595 ft 286 kts 208°
2026-05-05 16:09 29.73956 -13.04327 22152 ft 285 kts 208°
2026-05-05 16:10 29.72077 -13.05051 21714 ft 284 kts 208°
2026-05-05 16:10 29.70202 -13.05774 21284 ft 284 kts 207°
2026-05-05 16:10 29.68331 -13.06499 20854 ft 284 kts 207°
2026-05-05 16:10 29.66464 -13.07222 20451 ft 283 kts 207°
2026-05-05 16:11 29.64597 -13.07944 20042 ft 283 kts 207°
2026-05-05 16:11 29.59001 -13.10100 18847 ft 283 kts 206°
2026-05-05 16:12 29.57133 -13.10821 18448 ft 284 kts 206°
2026-05-05 16:12 29.53404 -13.12262 17615 ft 284 kts 206°
2026-05-05 16:13 29.47765 -13.14433 16606 ft 290 kts 205°
2026-05-05 16:13 29.45846 -13.15171 16320 ft 291 kts 205°
2026-05-05 16:13 29.43931 -13.15906 16039 ft 290 kts 205°
2026-05-05 16:14 29.40112 -13.17370 15474 ft 289 kts 205°
2026-05-05 16:14 29.36311 -13.18827 14908 ft 287 kts 205°
2026-05-05 16:15 29.32474 -13.20128 14347 ft 288 kts 202°
2026-05-05 16:15 29.28611 -13.21322 13776 ft 287 kts 201°
2026-05-05 16:16 29.24770 -13.22515 13192 ft 285 kts 201°
2026-05-05 16:16 29.20958 -13.23749 12583 ft 284 kts 202°
2026-05-05 16:17 29.17512 -13.25710 12064 ft 276 kts 216°
2026-05-05 16:17 29.15878 -13.26862 11816 ft 275 kts 216°
2026-05-05 16:18 29.12623 -13.29166 11325 ft 275 kts 216°
2026-05-05 16:18 29.10999 -13.30320 11080 ft 275 kts 216°
2026-05-05 16:18 29.07782 -13.32608 10607 ft 274 kts 216°
2026-05-05 16:19 29.06165 -13.33758 10367 ft 274 kts 216°
2026-05-05 16:19 29.04550 -13.34906 10132 ft 274 kts 215°
2026-05-05 16:19 29.01340 -13.37180 9600 ft 265 kts 215°
2026-05-05 16:20 28.98310 -13.39319 9206 ft 250 kts 216°
2026-05-05 16:20 28.95426 -13.41367 8714 ft 239 kts 215°
2026-05-05 16:21 28.92617 -13.43359 8015 ft 238 kts 215°
2026-05-05 16:22 28.88401 -13.46351 6938 ft 238 kts 214°
2026-05-05 16:22 28.85593 -13.48336 6414 ft 239 kts 214°
2026-05-05 16:23 28.82782 -13.50326 5967 ft 239 kts 214°
2026-05-05 16:23 28.81381 -13.51316 5745 ft 234 kts 214°
2026-05-05 16:23 28.78675 -13.53219 5303 ft 224 kts 215°
2026-05-05 16:24 28.77353 -13.54149 5084 ft 222 kts 215°
2026-05-05 16:24 28.76048 -13.55070 4869 ft 219 kts 215°
2026-05-05 16:24 28.74250 -13.57600 4487 ft 203 kts 256°
2026-05-05 16:25 28.74061 -13.59173 4278 ft 199 kts 275°
2026-05-05 16:25 28.74988 -13.62066 3880 ft 191 kts 302°
2026-05-05 16:25 28.75626 -13.63372 3689 ft 187 kts 302°
2026-05-05 16:26 28.76888 -13.65962 3291 ft 187 kts 301°
2026-05-05 16:26 28.78613 -13.67930 3023 ft 172 kts 337°
2026-05-05 16:27 28.79734 -13.68308 2900 ft 170 kts 355°
2026-05-05 16:27 28.80909 -13.68258 2740 ft 169 kts 12°
2026-05-05 16:27 28.81999 -13.67788 2552 ft 166 kts 26°
2026-05-05 16:27 28.83022 -13.67196 2336 ft 163 kts 26°
2026-05-05 16:28 28.84004 -13.66628 2129 ft 153 kts 27°
2026-05-05 16:28 28.84926 -13.66095 1931 ft 146 kts 27°
2026-05-05 16:28 28.85799 -13.65590 1770 ft 134 kts 27°
2026-05-05 16:28 28.86612 -13.65120 1576 ft 128 kts 27°
2026-05-05 16:29 28.87400 -13.64664 1404 ft 125 kts 27°
2026-05-05 16:29 28.88175 -13.64215 1240 ft 126 kts 27°
2026-05-05 16:29 28.88962 -13.63759 1071 ft 127 kts 29°
2026-05-05 16:29 28.89756 -13.63300 898 ft 129 kts 28°
2026-05-05 16:30 28.90557 -13.62836 757 ft 128 kts 30°
2026-05-05 16:30 28.91341 -13.62381 574 ft 125 kts 31°
2026-05-05 16:30 28.92111 -13.61936 388 ft 123 kts 32°
2026-05-05 16:30 28.92892 -13.61482 217 ft 127 kts 31°
2026-05-05 16:31 28.93668 -13.61033 64 ft 126 kts 30°
2026-05-05 16:31 28.94386 -13.60617 39 ft 96 kts 27°
2026-05-05 16:31 28.94834 -13.60357 48 ft 54 kts 26°
2026-05-05 16:31 28.95085 -13.60227 51 ft 32 kts 13°
2026-05-05 16:32 28.95265 -13.60210 51 ft 12 kts 357°
2026-05-05 16:32 28.95312 -13.60229 52 ft 3 kts 312°
2026-05-05 16:32 28.95313 -13.60230 52 ft 0 kts 311°
2026-05-05 16:34 28.95321 -13.60241 52 ft 8 kts 310°
2026-05-05 16:34 28.95308 -13.60289 52 ft 6 kts 205°
2026-05-05 16:34 28.95269 -13.60311 51 ft 6 kts 206°
2026-05-05 16:34 28.95213 -13.60344 50 ft 12 kts 208°
2026-05-05 16:35 28.95133 -13.60394 49 ft 12 kts 213°
2026-05-05 16:35 28.95124 -13.60474 49 ft 11 kts 295°
2026-05-05 16:35 28.95128 -13.60541 48 ft 7 kts 222°
2026-05-05 16:35 28.95094 -13.60542 48 ft 5 kts 124°
2026-05-05 16:36 28.95078 -13.60510 48 ft 4 kts 118°
2026-05-05 16:36 28.95075 -13.60501 48 ft 0 kts 117°